Tracking 19564 objects as of 19-Mar-2019
HD Live streaming from Space Station
objects crossing your sky now

IRIDIUM 161

Track IRIDIUM 161 now!
10-day predictions
IRIDIUM 161 is classified as:


NORAD ID: 43478
Int'l Code: 2018-047C
Perigee: 753.0 km
Apogee: 756.7 km
Inclination: 86.4 °
Period: 99.8 minutes
Semi major axis: 7125 km
RCS: Unknown
Launch date: May 22, 2018
Source: United States (US)
Launch site: AIR FORCE WESTERN TEST RANGE (AFWTR)
aabbcc
Your satellite tracking list
Your tracking list is empty




NASA's NSSDC Master Catalog

Two Line Element Set (TLE):
1 43478U 18047C   19077.49359060  .00000100  00000-0  23663-4 0  9991
2 43478  86.4461 115.0233 0002573  87.9520 272.1975 14.43279477 43244
Source of the keplerian elements: AFSPC